Home   Weather   Melbourne   Past weeks

Flag for Australia Past Weather in Melbourne, Victoria, Australia — Yesterday and Last 2 Weeks

Now
59 °F

Passing clouds.


Feels Like: 58 °F
Forecast: 52 / 76 °F
Wind: 6 mph from South

Location: Melbourne Airport

Current Time: Jan 19, 2017 at 9:28:34 am

Latest Report: Jan 19, 2017 at 8:30 am


Visibility: N/A

Pressure: 29.95 "Hg

Humidity: 63%

Dew Point: 46 °F

Location of MelbourneLocation

Past Weather in Melbourne — Graph

°F

Melbourne Temperature Yesterday

Maximum temperature yesterday: 70 °F (at 12:30 pm)
Minimum temperature yesterday: 57 °F (at 7:00 am)
Average temperature yesterday: 64 °F

High & Low Weather Summary for the Past Weeks

 TemperatureHumidityPressure
High99 °F (Jan 17, 12:48 pm)100% (Jan 18, 7:00 am)30.09 "Hg (Jan 18, 7:00 am)
Low50 °F (Jan 19, 5:00 am)10% (Jan 17, 1:12 pm)29.45 "Hg (Jan 13, 10:30 am)
Average71 °F58%29.86 "Hg
* Reported Jan 4 8:00 am — Jan 19 8:00 am, Melbourne, Weather by CustomWeather, © 2017

Note: Actual official high and low records may vary slightly from our data, if they occured in-between our weather recording intervals... More about our weather records

Advertising

Melbourne Weather History for the Previous 24 Hours

Scroll right to see more
 ConditionsComfort  
Time TempWeatherWind HumidityBarometerVisibility
8:00 am
Thu, Jan 19
57 °FPassing clouds.6 mph72%29.95 "HgN/A
7:30 am54 °FPassing clouds.7 mph77%29.98 "Hg4 mi
7:00 am50 °FPassing clouds.6 mph88%29.95 "HgN/A
6:30 am50 °FPassing clouds.5 mph82%29.95 "HgN/A
6:00 am50 °FPassing clouds.5 mph88%29.95 "HgN/A
5:30 am50 °FPassing clouds.No wind82%29.95 "HgN/A
5:00 am50 °FPassing clouds.5 mph82%29.95 "HgN/A
4:30 am52 °FPassing clouds.1 mph77%29.95 "HgN/A
4:00 am52 °FPassing clouds.7 mph77%29.95 "HgN/A
3:00 am54 °FPassing clouds.9 mph72%29.98 "HgN/A
2:30 am55 °FPassing clouds.10 mph67%29.98 "HgN/A
2:00 am55 °FPassing clouds.13 mph63%30.01 "HgN/A
1:30 am55 °FPassing clouds.10 mph63%30.01 "HgN/A
1:00 am55 °FPassing clouds.13 mph63%30.01 "HgN/A
12:30 am54 °FPassing clouds.10 mph77%30.01 "HgN/A
12:00 am55 °FPassing clouds.10 mph72%30.01 "HgN/A
11:30 pm
Wed, Jan 18
57 °FPassing clouds.12 mph67%30.04 "HgN/A
11:00 pm57 °FPassing clouds.14 mph63%30.04 "HgN/A
10:30 pm57 °FPassing clouds.15 mph63%30.04 "HgN/A
10:00 pm59 °FPassing clouds.16 mph59%30.04 "HgN/A
9:30 pm59 °FPassing clouds.15 mph59%30.01 "HgN/A
9:00 pm59 °FPassing clouds.16 mph59%30.01 "HgN/A
8:30 pm61 °FPassing clouds.18 mph55%30.01 "HgN/A
8:00 pm61 °FPassing clouds.18 mph55%30.01 "HgN/A
7:30 pm63 °FPassing clouds.20 mph56%30.01 "HgN/A
7:00 pm64 °FPassing clouds.21 mph49%30.01 "HgN/A
6:30 pm64 °FSunny.18 mph49%29.98 "Hg10 mi
6:00 pm66 °FSunny.22 mph43%29.98 "Hg10 mi
5:30 pm68 °FPassing clouds.20 mph43%29.98 "HgN/A
5:00 pm66 °FPassing clouds.21 mph43%29.98 "HgN/A
4:30 pm66 °FPassing clouds.20 mph43%29.98 "HgN/A
4:00 pm66 °FPassing clouds.22 mph43%29.98 "HgN/A
3:30 pm68 °FPassing clouds.20 mph40%29.98 "HgN/A
3:00 pm68 °FPassing clouds.22 mph43%29.98 "HgN/A
2:36 pm68 °FPassing clouds.20 mph43%29.98 "HgN/A
2:00 pm66 °FScattered clouds.21 mph46%29.98 "HgN/A
1:30 pm68 °FPartly sunny.21 mph46%30.01 "HgN/A
1:00 pm66 °FPartly sunny.18 mph49%29.98 "HgN/A
12:30 pm70 °FScattered clouds.22 mph46%29.98 "HgN/A
12:00 pm66 °FPartly sunny.20 mph49%29.98 "HgN/A
11:30 am66 °FPartly sunny.17 mph46%29.98 "HgN/A
11:00 am68 °FPartly sunny.20 mph43%29.95 "HgN/A
10:30 am68 °FPassing clouds.17 mph43%29.95 "HgN/A
10:00 am64 °FScattered clouds.16 mph52%29.95 "HgN/A
9:30 am63 °FPartly sunny.16 mph59%29.92 "HgN/A
9:00 am61 °FBroken clouds.17 mph59%29.95 "HgN/A
Weather by CustomWeather, © 2017

See weather overviewHow to use our weather pages